Regional Weather Roundup
Issued by NWS

Home | Current Version | Previous Version | Text Only | Print | Product List | Glossary Off
Versions: 1 2 3 4 5 6 7 8 9 10 11 12 13 14 15 16 17 18 19 20 21 22 23 24 25 26 27 28 29 30 31 32 33 34 35 36 37 38 39 40 41 42 43 44 45 46 47 48 49 50

000
ASUS43 KOAX 170302
RWRNE

WEATHER ROUNDUP FOR NEBRASKA
NATIONAL WEATHER SERVICE OMAHA NE
1000 PM CDT WED AUG 16 2017

NOTES: SATELLITE DATA IS BEING USED TO AUGMENT CLOUD COVER ABOVE
       12000 FEET.
       "FAIR" INDICATES FEW OR NO CLOUDS BELOW 12,000 FEET WITH NO
       SIGNIFICANT WEATHER AND/OR OBSTRUCTIONS TO VISIBILITY.


NEZ001>004-019>022-054>056-170400-
NEBRASKA PANHANDLE

CITY           SKY/WX    TMP DP  RH WIND       PRES   REMARKS
SCOTTSBLUFF    CLEAR     62  54  74 SE6       30.07R
ALLIANCE       CLEAR     58  51  78 S5        30.06R
CHADRON        CLEAR     64  53  67 SE7       30.01R
GORDON         FAIR      59  53  78 CALM      30.03R
KIMBALL        CLEAR     58  52  79 SE6       30.15R
SIDNEY         CLEAR     57  49  74 CALM      30.11R
$$

NEZ057>060-069>072-079>082-170400-
SOUTHWEST NEBRASKA

CITY           SKY/WX    TMP DP  RH WIND       PRES   REMARKS
NORTH PLATTE   CLEAR     60  57  89 W3        30.00R
IMPERIAL       CLEAR     65  54  67 W5        30.05R
LEXINGTON      CLEAR     62  59  91 W7        29.97R
MCCOOK         CLEAR     64  61  90 N8        30.00R
OGALLALA       CLEAR     60  55  84 CALM      30.04R
$$

NEZ005>010-023>029-035>040-094-170400-
NORTH CENTRAL NEBRASKA

CITY           SKY/WX    TMP DP  RH WIND       PRES   REMARKS
VALENTINE      CLEAR     66  49  54 N8        29.98R
AINSWORTH      CLEAR     62  57  84 NW8       29.97R
BROKEN BOW     CLEAR     63  59  87 NW6       29.95R
O`NEILL        CLOUDY    63  62  98 W8        29.91R
ORD            CLEAR     62  58  86 W3        29.92R
THEDFORD       CLEAR     60  54  80 CALM      30.00R
$$

NEZ041-046>049-061>064-073>077-083>087-170400-
SOUTH CENTRAL NEBRASKA

CITY           SKY/WX    TMP DP  RH WIND       PRES   REMARKS
GRAND ISLAND   CLEAR     64  62  93 W5        29.93R
AURORA         PTCLDY    64  63  98 W5        29.91R
HASTINGS       CLEAR     64  61  90 NW6       29.94R
HEBRON         CLEAR     70  64  83 NW5       29.91R
HOLDREGE       CLEAR     62  59  91 CALM      29.96R
KEARNEY        CLEAR     64  60  87 W6        29.95R
YORK           MOCLDY    66  64  94 CALM      29.91R
$$

NEZ011>018-030>034-042>045-170400-
NORTHEAST NEBRASKA

CITY           SKY/WX    TMP DP  RH WIND       PRES   REMARKS
NORFOLK        MOCLDY    63  60  90 W9        29.86R
ALBION         MOCLDY    66  61  85 NW9       29.90R
BLAIR          RAIN      69  66  91 W8        29.83R
COLUMBUS       PTCLDY    65  61  87 W7        29.89R
FREMONT        CLOUDY    67  65  91 W8        29.85R
TEKAMAH        MOCLDY    69  63  81 W12       29.81R
WAYNE          CLOUDY    64  62  91 NW12G18   29.83R
$$

NEZ050>053-065>068-078-088>093-170400-
SOUTHEAST NEBRASKA

CITY           SKY/WX    TMP DP  RH WIND       PRES   REMARKS
LINCOLN        MOCLDY    71  63  75 NW10      29.88R
OMAHA EPPLEY   DRIZZLE   71  65  81 NW16G26   29.82R
BEATRICE       MOCLDY    72  66  82 NW10      29.88R
FALLS CITY     CLOUDY    74  65  73 SW6       29.82R
NEBRASKA CITY  MOCLDY    72  70  94 NW6       29.84R
PLATTSMOUTH    PTCLDY    69  65  86 W3        29.83S
$$

NEZ044-045-051>053-067-170400-
OMAHA AREA

CITY           SKY/WX    TMP DP  RH WIND       PRES   REMARKS
OMAHA EPPLEY   DRIZZLE   71  65  81 NW16G26   29.82R
BLAIR          RAIN      69  66  91 W8        29.83R
FREMONT        CLOUDY    67  65  91 W8        29.85R
MILLARD        PTCLDY    72  66  80 NW12G20   29.83R
OFFUTT AFB     MOCLDY    74  63  69 W12       29.81R
PLATTSMOUTH    PTCLDY    69  65  86 W3        29.83S
WAHOO          FAIR      68  64  86 NW10      29.85R
$$




USA.gov is the U.S. government's official web portal to all federal, state and local government web resources and services.